KC8YVF-1 Weather Reports


Display with metric or nautical units.
time (UTC)temp
F
wind
direction
speed
MPH
gust
MPH
rain 1hr
in
rain 24hr
in
rain mn
in
humidity
%
barometer
mb
20170627121257 55 270 0.0 0.0 0.00 0.04 0.02 85 1003.4
20170627120801 54 293 0.0 0.0 0.00 0.04 0.02 85 1003.3
20170627120646 54 270 0.0 0.0 0.00 0.04 0.02 85 1003.3
20170627120255 54 338 0.0 0.0 0.00 0.04 0.02 85 1003.3
20170627115755 54 338 0.0 8.0 0.00 0.04 0.02 85 1003.3
20170627115147 53 270 0.0 0.0 0.00 0.04 0.02 85 1003.2
20170627113647 53 270 0.0 0.0 0.00 0.04 0.02 85 1003.0
20170627113254 53 293 0.0 0.0 0.00 0.04 0.02 85 1003.0
20170627112754 53 293 0.0 0.0 0.00 0.04 0.02 85 1003.0
20170627112146 53 315 0.0 0.0 0.00 0.04 0.02 85 1003.0
20170627111755 52 338 0.0 0.0 0.00 0.04 0.02 85 1002.8
20170627111255 52 338 0.0 0.0 0.00 0.04 0.02 85 1002.7
20170627110647 52 315 0.0 0.0 0.00 0.04 0.02 85 1002.7
20170627110254 52 315 0.0 0.0 0.00 0.04 0.02 85 1002.7
20170627105755 52 338 0.0 0.0 0.00 0.04 0.02 85 1002.6
20170627105254 52 315 0.0 0.0 0.00 0.04 0.02 85 1002.7
20170627105146 52 315 0.0 0.0 0.00 0.04 0.02 85 1002.7
20170627104255 52 315 0.0 0.0 0.00 0.04 0.02 84 1002.6
20170627103647 52 270 0.0 0.0 0.00 0.04 0.02 84 1002.4
20170627103255 52 315 0.0 0.0 0.00 0.04 0.02 84 1002.3
20170627102755 52 270 0.0 0.0 0.00 0.04 0.02 84 1002.3
20170627102255 52 248 0.0 0.0 0.00 0.04 0.02 84 1002.3
20170627102146 52 248 0.0 0.0 0.00 0.04 0.02 84 1002.3
20170627100646 53 293 0.0 0.0 0.00 0.04 0.02 84 1002.3
20170627100255 53 293 0.0 0.0 0.00 0.04 0.02 84 1002.3
20170627095755 53 293 0.0 0.0 0.00 0.04 0.02 84 1002.3
20170627095255 53 315 0.0 0.0 0.00 0.04 0.02 85 1002.3
20170627095146 53 293 0.0 0.0 0.00 0.04 0.02 85 1002.3
20170627094755 53 338 0.0 1.0 0.00 0.04 0.02 85 1002.2
20170627094255 53 293 0.0 0.0 0.00 0.04 0.02 85 1002.0
20170627093755 53 270 0.0 0.0 0.00 0.04 0.02 84 1002.0
20170627093647 53 270 0.0 0.0 0.00 0.04 0.02 84 1002.0
20170627093256 53 225 0.0 0.0 0.00 0.04 0.02 84 1002.0
20170627092756 53 248 0.0 0.0 0.00 0.04 0.02 84 1002.0
20170627092254 53 270 0.0 0.0 0.00 0.04 0.02 84 1002.0
20170627092147 53 293 0.0 0.0 0.00 0.04 0.02 84 1002.0
20170627091254 53 315 0.0 0.0 0.00 0.04 0.02 83 1002.0
20170627090754 53 293 0.0 1.0 0.00 0.04 0.02 83 1001.6
20170627090646 52 293 0.0 0.0 0.00 0.04 0.02 83 1001.6
20170627090254 52 338 0.0 0.0 0.00 0.04 0.02 83 1001.6
20170627085754 52 293 0.0 0.0 0.00 0.04 0.02 83 1001.6
20170627085255 52 270 0.0 0.0 0.00 0.04 0.02 83 1001.6
20170627085146 52 270 0.0 0.0 0.00 0.04 0.02 83 1001.6
20170627084755 52 293 0.0 0.0 0.00 0.04 0.02 83 1001.6
20170627083754 52 315 0.0 0.0 0.00 0.04 0.02 83 1001.6
20170627083647 52 338 1.0 3.0 0.00 0.04 0.02 83 1001.6
20170627083254 52 315 0.0 0.0 0.00 0.04 0.02 83 1001.6
20170627082755 52 338 0.0 0.0 0.00 0.04 0.02 83 1001.6
20170627082147 52 315 0.0 0.0 0.00 0.04 0.02 83 1001.6
20170627081254 53 315 0.0 0.0 0.00 0.04 0.02 83 1001.6
20170627080756 53 293 0.0 0.0 0.00 0.04 0.02 83 1001.6
20170627080647 53 293 0.0 0.0 0.00 0.04 0.02 83 1001.6
20170627075254 53 338 0.0 0.0 0.00 0.04 0.02 82 1001.6
20170627075147 53 248 0.0 0.0 0.00 0.04 0.02 82 1001.6
20170627074254 52 315 0.0 0.0 0.00 0.04 0.02 82 1001.6
20170627073755 52 338 0.0 0.0 0.00 0.04 0.02 81 1001.6
20170627073646 52 293 0.0 2.0 0.00 0.04 0.02 81 1001.6
20170627073254 52 315 0.0 0.0 0.00 0.04 0.02 81 1001.6
20170627072754 52 293 0.0 0.0 0.00 0.04 0.02 81 1001.4
20170627072254 52 315 0.0 0.0 0.02 0.04 0.02 81 1001.3
20170627072147 52 315 0.0 0.0 0.02 0.04 0.02 81 1001.3
20170627071754 52 315 0.0 0.0 0.02 0.04 0.02 81 1001.3
20170627071255 52 315 0.0 0.0 0.02 0.04 0.02 81 1001.3
20170627070754 52 338 0.0 0.0 0.02 0.04 0.02 81 1001.3
20170627070647 52 338 0.0 0.0 0.02 0.04 0.02 81 1001.3
20170627070254 52 338 0.0 0.0 0.02 0.04 0.02 81 1001.3
20170627065754 52 0 0.0 0.0 0.02 0.04 0.02 81 1001.3
20170627065254 52 338 0.0 0.0 0.02 0.04 0.02 81 1001.3
20170627065146 52 338 0.0 0.0 0.02 0.04 0.02 81 1001.3
20170627064755 52 0 0.0 0.0 0.02 0.04 0.02 80 1001.3
20170627064254 52 338 0.0 0.0 0.02 0.04 0.02 80 1001.1
20170627063754 52 338 0.0 0.0 0.02 0.04 0.02 80 1001.1
20170627063647 53 315 0.0 0.0 0.02 0.04 0.02 80 1001.0
20170627063257 53 338 0.0 0.0 0.02 0.04 0.02 80 1001.0
20170627062756 53 338 0.0 0.0 0.02 0.04 0.02 80 1001.2
20170627062302 53 315 0.0 0.0 0.00 0.02 0.00 79 1001.3
20170627062146 53 315 0.0 0.0 0.00 0.02 0.00 79 1001.3
20170627061755 53 315 0.0 0.0 0.00 0.02 0.00 79 1001.3
20170627061254 53 338 0.0 0.0 0.00 0.02 0.00 79 1001.3
20170627060755 54 338 0.0 0.0 0.00 0.02 0.00 78 1001.3
20170627060646 54 338 1.0 0.0 0.00 0.02 0.00 78 1001.3
20170627060255 54 315 1.0 2.0 0.00 0.02 0.00 79 1001.2
20170627055754 54 338 2.0 6.0 0.00 0.02 0.00 78 1001.3
20170627055255 55 315 0.0 0.0 0.00 0.02 0.00 77 1001.3
20170627055146 55 338 2.0 6.0 0.00 0.02 0.00 77 1001.3
20170627054755 55 315 2.0 0.0 0.00 0.02 0.00 77 1001.0
20170627054254 55 293 0.0 0.0 0.00 0.02 0.00 76 1001.0
20170627053756 55 315 0.0 0.0 0.00 0.02 0.00 76 1001.0
20170627053647 54 315 0.0 0.0 0.00 0.02 0.00 76 1001.0
20170627053256 54 293 0.0 0.0 0.00 0.02 0.00 76 1001.0
20170627052756 54 338 0.0 1.0 0.00 0.02 0.00 76 1001.0
20170627052254 54 293 0.0 0.0 0.00 0.02 0.00 75 1001.0
20170627052147 54 293 0.0 0.0 0.00 0.02 0.00 75 1001.0
20170627051756 54 248 0.0 0.0 0.00 0.02 0.00 75 1001.0
20170627051255 54 270 0.0 0.0 0.00 0.02 0.00 75 1001.0
20170627050754 54 270 0.0 0.0 0.00 0.02 0.00 74 1001.0
20170627050647 54 270 0.0 0.0 0.00 0.02 0.00 74 1001.0
20170627050254 54 225 0.0 0.0 0.00 0.02 0.00 74 1001.0
20170627045754 54 270 0.0 0.0 0.00 0.02 0.00 74 1001.1
20170627045256 54 158 0.0 0.0 0.00 0.02 0.00 74 1001.1
20170627045147 54 158 0.0 0.0 0.00 0.02 0.00 74 1001.2
20170627044258 54 225 0.0 0.0 0.00 0.02 0.00 73 1001.0
20170627043646 54 270 0.0 0.0 0.00 0.02 0.00 73 1001.0
20170627043254 54 315 0.0 0.0 0.00 0.02 0.00 73 1001.0
20170627042755 54 180 0.0 0.0 0.00 0.02 0.00 73 1001.0
20170627042254 54 338 0.0 0.0 0.00 0.02 0.00 72 1001.0
20170627042147 54 203 0.0 0.0 0.00 0.02 0.00 72 1001.0
20170627041254 55 338 0.0 0.0 0.00 0.02 0.00 72 1001.0
20170627040754 55 315 0.0 0.0 0.00 0.02 0.00 71 1001.0
20170627040646 55 315 0.0 0.0 0.00 0.02 0.00 71 1001.0
20170627040255 55 225 0.0 0.0 0.00 0.02 0.00 71 1001.0
20170627035754 55 270 0.0 0.0 0.00 0.02 0.02 71 1001.0
20170627035256 56 270 0.0 0.0 0.00 0.02 0.02 71 1001.0
20170627035146 56 293 0.0 0.0 0.00 0.02 0.02 71 1001.0
20170627034756 56 315 0.0 0.0 0.00 0.02 0.02 71 1001.0
20170627034303 56 270 0.0 0.0 0.00 0.02 0.02 71 1000.6
20170627033755 56 293 0.0 0.0 0.00 0.02 0.02 71 1000.7
20170627033646 56 270 0.0 0.0 0.00 0.02 0.02 70 1000.7
20170627033254 56 270 0.0 0.0 0.00 0.02 0.02 70 1000.6
20170627032755 56 315 0.0 0.0 0.00 0.02 0.02 70 1000.8
20170627032254 56 293 0.0 0.0 0.00 0.02 0.02 70 1000.6
20170627032147 56 180 0.0 0.0 0.00 0.02 0.02 70 1000.6
20170627031754 56 315 0.0 0.0 0.00 0.02 0.02 70 1000.6
20170627031256 56 248 0.0 0.0 0.00 0.02 0.02 70 1000.6
20170627030755 56 315 0.0 0.0 0.00 0.02 0.02 70 1000.6
20170627030647 56 315 0.0 0.0 0.00 0.02 0.02 70 1000.6
20170627030254 56 270 0.0 0.0 0.00 0.02 0.02 70 1000.6
20170627025754 56 248 0.0 0.0 0.00 0.02 0.02 70 1000.6
20170627025254 56 225 0.0 0.0 0.00 0.02 0.02 69 1000.6
20170627025147 56 225 0.0 0.0 0.00 0.02 0.02 69 1000.6
20170627024754 56 225 0.0 0.0 0.00 0.02 0.02 69 1000.4
20170627024255 56 225 0.0 0.0 0.00 0.02 0.02 69 1000.4
20170627023754 57 225 0.0 0.0 0.00 0.02 0.02 68 1000.3
20170627023647 57 225 0.0 0.0 0.00 0.02 0.02 68 1000.3
20170627023256 57 225 0.0 0.0 0.00 0.02 0.02 68 1000.3
20170627022255 57 225 0.0 0.0 0.00 0.02 0.02 67 1000.3
20170627022146 57 225 0.0 0.0 0.00 0.02 0.02 67 1000.3
20170627021755 57 225 0.0 0.0 0.00 0.02 0.02 67 1000.3
20170627021646 57 225 0.0 0.0 0.00 0.02 0.02 67 1000.3
20170627021254 57 270 0.0 0.0 0.00 0.02 0.02 67 1000.3
20170627020756 57 203 0.0 0.0 0.00 0.02 0.02 67 1000.3
20170627020255 57 225 0.0 0.0 0.00 0.02 0.02 67 1000.3
20170627020146 57 270 0.0 0.0 0.00 0.02 0.02 67 1000.3
20170627015755 57 203 0.0 0.0 0.00 0.02 0.02 67 1000.3
20170627015254 57 248 0.0 0.0 0.00 0.02 0.02 66 1000.3
20170627014646 58 248 0.0 0.0 0.00 0.02 0.02 66 1000.3
20170627014255 58 270 0.0 0.0 0.00 0.02 0.02 66 1000.3
20170627013755 58 225 0.0 0.0 0.00 0.02 0.02 65 1000.1
20170627013255 58 248 0.0 0.0 0.00 0.02 0.02 64 1000.0
20170627013145 58 225 0.0 0.0 0.00 0.02 0.02 64 1000.0
20170627012254 59 248 0.0 0.0 0.00 0.02 0.02 64 1000.0
20170627011754 59 270 0.0 0.0 0.00 0.02 0.02 64 1000.0
20170627011645 59 248 0.0 0.0 0.00 0.02 0.02 64 1000.0
20170627011254 59 225 0.0 0.0 0.00 0.02 0.02 64 1000.0
20170627010755 59 248 0.0 0.0 0.00 0.02 0.02 63 1000.0
20170627010255 59 315 0.0 0.0 0.00 0.02 0.02 62 1000.0
20170627010146 59 248 0.0 0.0 0.00 0.02 0.02 62 1000.0
20170627005755 60 225 0.0 0.0 0.00 0.02 0.02 62 1000.0
20170627005255 60 203 1.0 0.0 0.00 0.02 0.02 61 1000.0
20170627004646 60 203 0.0 0.0 0.00 0.02 0.02 61 1000.0
20170627004255 61 293 0.0 0.0 0.00 0.02 0.02 60 1000.0
20170627003755 61 225 0.0 0.0 0.00 0.02 0.02 60 1000.0
20170627003255 62 180 0.0 0.0 0.00 0.02 0.02 59 1000.0
20170627003146 62 225 2.0 6.0 0.00 0.02 0.02 59 1000.0
20170627002755 62 225 0.0 0.0 0.00 0.02 0.02 58 1000.0
20170627002255 62 293 0.0 3.0 0.00 0.02 0.02 58 1000.0
20170627001755 62 270 0.0 0.0 0.00 0.02 0.02 58 1000.0
20170627001646 62 270 0.0 0.0 0.00 0.02 0.02 57 1000.0
20170627001256 62 225 0.0 0.0 0.00 0.02 0.02 57 1000.0
20170627000755 62 315 0.0 0.0 0.00 0.02 0.02 56 1000.0
20170627000255 63 248 0.0 0.0 0.00 0.02 0.02 56 1000.1
20170627000146 63 248 0.0 0.0 0.00 0.02 0.02 56 1000.1
20170626235255 63 248 0.0 0.0 0.00 0.02 0.02 55 1000.0
20170626234755 64 270 2.0 1.0 0.00 0.02 0.02 55 1000.0
20170626234646 64 225 0.0 6.0 0.00 0.02 0.02 55 1000.0
20170626234256 64 338 1.0 0.0 0.00 0.02 0.02 55 1000.0
20170626233254 65 270 1.0 0.0 0.00 0.02 0.02 54 1000.0
20170626233145 65 248 0.0 0.0 0.00 0.02 0.02 54 1000.0
20170626232754 65 270 0.0 0.0 0.00 0.02 0.02 56 1000.0
20170626231647 65 270 2.0 3.0 0.00 0.02 0.02 55 999.9
20170626231256 65 315 0.0 0.0 0.00 0.02 0.02 55 999.9
20170626230755 66 270 0.0 0.0 0.00 0.02 0.02 54 1000.0
20170626230255 66 293 0.0 2.0 0.00 0.02 0.02 54 1000.0
20170626230146 66 225 0.0 0.0 0.00 0.02 0.02 54 1000.0
20170626225755 67 270 0.0 1.0 0.00 0.02 0.02 54 1000.0
20170626225255 67 248 0.0 0.0 0.00 0.02 0.02 54 999.6
20170626224755 67 270 0.0 0.0 0.00 0.02 0.02 53 999.6
20170626224646 68 270 0.0 0.0 0.00 0.02 0.02 53 999.9
20170626224255 68 315 0.0 1.0 0.00 0.02 0.02 53 1000.0
20170626223755 68 315 0.0 0.0 0.00 0.02 0.02 52 999.9
20170626223255 69 135 0.0 0.0 0.00 0.02 0.02 53 999.8
20170626223146 69 315 1.0 3.0 0.00 0.02 0.02 53 999.6
20170626222800 69 270 1.0 0.0 0.00 0.02 0.02 53 999.6
20170626222254 69 315 2.0 3.0 0.00 0.02 0.02 53 999.6
20170626221755 69 338 2.0 6.0 0.00 0.02 0.02 53 999.6
20170626221646 69 338 0.0 0.0 0.00 0.02 0.02 53 999.6
20170626221255 69 270 0.0 0.0 0.00 0.02 0.02 53 1000.0
20170626220754 69 293 2.0 6.0 0.00 0.02 0.02 53 1000.0
20170626220254 69 293 2.0 8.0 0.00 0.02 0.02 54 1000.0
20170626220145 69 248 0.0 0.0 0.00 0.02 0.02 54 1000.0
20170626215754 69 338 2.0 7.0 0.00 0.02 0.02 54 1000.0
20170626215254 69 315 3.0 8.0 0.00 0.02 0.02 56 1000.0
20170626214754 68 315 1.0 3.0 0.00 0.02 0.02 55 1000.0
20170626214645 68 293 1.0 7.0 0.00 0.02 0.02 55 1000.0
20170626214254 68 248 2.0 7.0 0.00 0.02 0.02 55 1000.0
20170626213756 67 293 1.0 0.0 0.00 0.02 0.02 54 1000.0
20170626213256 67 315 5.0 9.0 0.00 0.02 0.02 53 1000.0
20170626213146 67 270 1.0 0.0 0.00 0.02 0.02 53 1000.0
20170626212756 67 248 0.0 8.0 0.00 0.02 0.02 53 1000.1
20170626212255 67 270 0.0 0.0 0.00 0.02 0.02 53 1000.3
20170626211754 68 315 7.0 7.0 0.00 0.02 0.02 52 1000.1
20170626211645 69 338 7.0 9.0 0.00 0.02 0.02 52 1000.3
20170626211255 69 270 7.0 7.0 0.00 0.02 0.02 53 1000.3
20170626210755 70 270 3.0 7.0 0.00 0.02 0.02 53 1000.2
20170626210255 69 270 5.0 5.0 0.00 0.02 0.02 53 1000.0
20170626210145 69 315 6.0 9.0 0.00 0.02 0.02 52 1000.0
20170626205758 70 270 5.0 6.0 0.00 0.02 0.02 51 1000.0
20170626205254 70 293 1.0 0.0 0.00 0.02 0.02 52 1000.0
20170626204754 70 270 0.0 7.0 0.00 0.02 0.02 52 1000.0
20170626204646 70 225 1.0 0.0 0.00 0.02 0.02 51 1000.0
20170626204255 70 338 2.0 6.0 0.00 0.02 0.02 52 1000.0
20170626203755 70 293 0.0 2.0 0.00 0.02 0.02 53 1000.0
20170626203315 70 270 0.0 0.0 0.00 0.02 0.02 53 1000.0
20170626203146 70 270 0.0 0.0 0.00 0.02 0.02 53 1000.1
20170626202755 69 225 2.0 2.0 0.00 0.02 0.02 53 1000.2
20170626202254 69 248 1.0 2.0 0.00 0.02 0.02 53 1000.2
20170626201754 69 315 0.0 5.0 0.00 0.02 0.02 53 1000.1
20170626201646 69 270 0.0 2.0 0.00 0.02 0.02 53 1000.1
20170626201254 69 270 1.0 2.0 0.00 0.02 0.02 53 1000.0
20170626200756 69 315 0.0 1.0 0.00 0.02 0.02 52 1000.3
20170626200256 70 270 0.0 0.0 0.00 0.02 0.02 50 1000.3
20170626200147 70 270 1.0 2.0 0.00 0.02 0.02 51 1000.3
20170626195255 71 270 2.0 6.0 0.00 0.02 0.02 51 1000.3
20170626194756 71 203 2.0 2.0 0.00 0.02 0.02 51 1000.3
20170626194646 71 225 0.0 0.0 0.00 0.02 0.02 51 1000.3
20170626194254 71 248 3.0 0.0 0.00 0.02 0.02 51 1000.4
20170626193254 72 248 0.0 0.0 0.00 0.02 0.02 53 1000.4
20170626193145 72 270 0.0 0.0 0.00 0.02 0.02 53 1000.4
20170626192754 72 270 0.0 2.0 0.00 0.02 0.02 53 1000.5
20170626192256 71 225 0.0 0.0 0.00 0.02 0.02 53 1000.6
20170626191755 71 293 5.0 6.0 0.00 0.02 0.02 54 1000.6
20170626191646 71 248 3.0 6.0 0.00 0.02 0.02 54 1000.6
20170626190755 70 315 0.0 0.0 0.00 0.02 0.02 56 1000.6
20170626190256 70 270 6.0 6.0 0.00 0.02 0.02 58 1000.6
20170626190146 70 270 0.0 2.0 0.00 0.02 0.02 58 1000.6
20170626185755 69 225 3.0 3.0 0.00 0.02 0.02 59 1000.6
20170626185254 68 270 1.0 6.0 0.00 0.02 0.02 60 1000.6
20170626184754 68 248 3.0 8.0 0.00 0.02 0.02 60 1000.5
20170626184645 68 225 0.0 0.0 0.00 0.02 0.02 60 1000.5
20170626184255 68 248 2.0 5.0 0.00 0.02 0.02 61 1000.5
20170626183755 68 248 1.0 5.0 0.00 0.02 0.02 62 1000.6
20170626183255 67 315 0.0 2.0 0.02 0.02 0.02 64 1000.6
20170626183146 67 270 2.0 0.0 0.02 0.02 0.02 64 1000.6
20170626182755 66 270 1.0 1.0 0.02 0.02 0.02 67 1000.6
20170626182254 66 270 0.0 0.0 0.02 0.02 0.02 68 1000.6
20170626181645 65 270 0.0 0.0 0.02 0.02 0.02 70 1000.6
20170626181254 65 248 0.0 7.0 0.02 0.02 0.02 72 1000.6
20170626180756 63 180 2.0 0.0 0.02 0.02 0.02 73 1000.6
20170626180147 62 315 1.0 3.0 0.02 0.02 0.02 71 1000.6
20170626175756 61 315 0.0 0.0 0.02 0.02 0.02 68 1000.6
20170626175255 61 315 0.0 0.0 0.02 0.02 0.02 66 1000.6
20170626174755 62 338 0.0 0.0 0.02 0.02 0.02 64 1000.9
20170626174646 62 338 0.0 0.0 0.02 0.02 0.02 63 1001.0
20170626174254 63 338 0.0 0.0 0.02 0.02 0.02 60 1001.0
20170626173758 65 293 1.0 5.0 0.02 0.04 0.02 58 1001.0
20170626173256 68 315 5.0 9.0 0.00 0.02 0.00 58 1000.9
20170626173147 68 270 3.0 6.0 0.00 0.02 0.00 58 1000.9
20170626172756 68 248 0.0 0.0 0.00 0.02 0.00 59 1000.7
20170626172255 68 270 1.0 2.0 0.00 0.02 0.00 60 1000.6
20170626171757 68 315 0.0 2.0 0.00 0.02 0.00 59 1000.6
20170626171646 68 293 0.0 0.0 0.00 0.02 0.00 58 1000.6
20170626171255 68 270 0.0 0.0 0.00 0.02 0.00 56 1000.6
20170626170255 70 203 1.0 2.0 0.00 0.02 0.00 57 1001.0
20170626170145 70 203 0.0 0.0 0.00 0.02 0.00 57 1001.0
20170626165754 70 225 0.0 2.0 0.00 0.02 0.00 58 1001.0
20170626165256 69 203 1.0 5.0 0.00 0.02 0.00 59 1001.0
20170626164647 69 270 0.0 0.0 0.00 0.02 0.00 59 1001.0
20170626164255 69 270 1.0 2.0 0.00 0.02 0.00 58 1001.0
20170626163756 70 248 0.0 0.0 0.00 0.02 0.00 59 1001.0
20170626163255 69 203 1.0 0.0 0.00 0.02 0.00 60 1001.3
20170626163146 69 203 0.0 0.0 0.00 0.02 0.00 60 1001.3
20170626162755 69 248 0.0 0.0 0.00 0.02 0.00 59 1001.3
20170626162255 69 293 0.0 0.0 0.00 0.02 0.00 60 1001.3
20170626161755 69 248 0.0 0.0 0.00 0.02 0.00 60 1001.3
20170626161646 69 180 1.0 3.0 0.00 0.02 0.00 60 1001.3
20170626161257 69 203 0.0 0.0 0.00 0.02 0.00 60 1001.3
20170626160755 68 225 0.0 2.0 0.00 0.02 0.00 61 1001.4
20170626160255 67 248 0.0 0.0 0.00 0.02 0.00 62 1001.5
20170626160145 67 270 0.0 0.0 0.00 0.02 0.00 62 1001.5
20170626155756 67 248 0.0 0.0 0.00 0.02 0.00 62 1001.5
20170626155255 66 270 0.0 1.0 0.00 0.02 0.00 62 1001.5
20170626154755 65 293 0.0 0.0 0.00 0.02 0.00 61 1001.6
20170626154646 65 203 0.0 0.0 0.00 0.02 0.00 61 1001.6
20170626154255 65 293 1.0 2.0 0.00 0.02 0.00 61 1001.6
20170626153756 66 248 0.0 0.0 0.00 0.02 0.00 62 1001.6
20170626153256 66 225 0.0 0.0 0.00 0.02 0.00 62 1001.6
20170626153146 66 248 0.0 0.0 0.00 0.02 0.00 62 1001.6
20170626152756 66 270 0.0 0.0 0.00 0.02 0.00 62 1001.6
20170626152255 66 248 1.0 5.0 0.00 0.02 0.00 63 1001.6
20170626151755 65 225 1.0 2.0 0.00 0.02 0.00 62 1001.6
20170626151646 65 293 1.0 6.0 0.00 0.02 0.00 62 1001.6
20170626151254 66 293 1.0 0.0 0.00 0.02 0.00 62 1001.6
20170626150756 66 338 0.0 0.0 0.00 0.02 0.00 63 1001.6
20170626150256 66 315 1.0 2.0 0.00 0.02 0.00 62 1001.6
20170626150147 66 315 1.0 6.0 0.00 0.02 0.00 62 1001.6
20170626145756 66 180 0.0 0.0 0.00 0.02 0.00 64 1001.6
20170626144755 65 248 0.0 0.0 0.00 0.02 0.00 64 1001.7
20170626144645 65 248 5.0 6.0 0.00 0.02 0.00 64 1001.6
20170626144254 65 293 0.0 0.0 0.00 0.02 0.00 65 1001.9
20170626143256 64 293 3.0 8.0 0.00 0.02 0.00 66 1002.0
20170626143147 64 293 5.0 13.0 0.00 0.02 0.00 66 1002.0
20170626142756 64 225 1.0 3.0 0.00 0.02 0.00 66 1002.0
20170626142254 64 225 1.0 0.0 0.00 0.02 0.00 66 1002.0
20170626141755 63 248 3.0 6.0 0.00 0.02 0.00 67 1002.0
20170626141646 63 270 1.0 6.0 0.00 0.02 0.00 67 1002.0
20170626140755 64 248 0.0 0.0 0.00 0.02 0.00 68 1002.0
20170626140146 64 293 0.0 0.0 0.00 0.02 0.00 69 1002.0
20170626135806 63 293 1.0 6.0 0.00 0.02 0.00 68 1002.0
20170626135255 63 248 1.0 0.0 0.00 0.02 0.00 70 1002.0
20170626134646 63 270 3.0 3.0 0.00 0.02 0.00 71 1002.0
20170626134256 62 270 5.0 7.0 0.00 0.02 0.00 72 1002.0
20170626133754 62 315 2.0 8.0 0.00 0.02 0.00 72 1002.0
20170626133254 62 203 1.0 0.0 0.00 0.02 0.00 72 1002.1
20170626133145 62 225 0.0 0.0 0.00 0.02 0.00 72 1002.2
20170626132754 62 225 0.0 0.0 0.00 0.02 0.00 72 1002.0
20170626132256 62 203 1.0 3.0 0.00 0.02 0.00 74 1002.0
20170626131756 62 248 1.0 1.0 0.00 0.02 0.00 74 1002.0
20170626131647 62 225 2.0 5.0 0.00 0.02 0.00 74 1002.0
20170626131256 62 225 0.0 2.0 0.00 0.02 0.00 75 1002.0
20170626130756 62 270 1.0 7.0 0.00 0.02 0.00 76 1002.0
20170626130254 62 203 1.0 3.0 0.00 0.02 0.00 78 1002.0
20170626130145 62 180 0.0 0.0 0.00 0.02 0.00 78 1002.0
20170626125754 61 293 0.0 2.0 0.00 0.02 0.00 78 1002.0
20170626125256 61 270 1.0 0.0 0.00 0.02 0.00 78 1002.0
20170626124647 60 0 0.0 0.0 0.00 0.02 0.00 79 1001.7
20170626124256 60 225 0.0 1.0 0.00 0.02 0.00 80 1001.8
20170626123755 60 248 0.0 6.0 0.00 0.02 0.00 80 1001.9
20170626123256 60 293 0.0 0.0 0.00 0.02 0.00 81 1001.8
20170626123145 60 248 0.0 0.0 0.00 0.02 0.00 82 1001.7
20170626122755 60 203 0.0 0.0 0.00 0.02 0.00 83 1001.6
20170626122256 59 270 0.0 0.0 0.00 0.02 0.00 83 1001.6
20170626121756 59 225 0.0 0.0 0.00 0.02 0.00 84 1001.6
20170626121647 58 225 1.0 0.0 0.00 0.02 0.00 84 1001.6